STARLINK-34760

Last updated on Tue Sep 16 2025 00:02:07 GMT+0000 (Coordinated Universal Time)

1 65359U 25190J 25257.92540044 -.01807286 00000+0 -20334-1 0 9990 2 65359 53.1592 268.2290 0002743 3.3075 356.7959 15.64893598 2327
UTC large
Height (km)
Speed (km/s)
/
Latitude / Longitude
Inclination (degrees)
Orbital Period (minutes)
Azimuth
Elevation
Range (km)
Doppler Factor

Next 0 passes for location: London (51.5072 / 0.1276)

Sorry there are no passes over London.